| time (UTC) | temp F | wind direction | speed MPH | gust MPH | rain 1hr in | rain 24hr in | rain mn in | humidity % | barometer mb |
| 20260831223057 | 77 | 180 | 6.0 | 21.0 | 0.00 | 0.00 | 0.00 | 42 | 1015.7 |
| 20260831220017 | 79 | 180 | 3.0 | 13.0 | 0.00 | 0.00 | 0.00 | 38 | 1015.4 |
| 20260831213017 | 81 | 180 | 3.0 | 12.0 | 0.00 | 0.00 | 0.00 | 37 | 1016.1 |
| 20260831210057 | 81 | 180 | 3.0 | 11.0 | 0.00 | 0.00 | 0.00 | 38 | 1016.3 |
| 20260831203016 | 81 | 180 | 3.0 | 11.0 | 0.00 | 0.00 | 0.00 | 36 | 1016.8 |
| 20260831200056 | 81 | 180 | 3.0 | 11.0 | 0.00 | 0.00 | 0.00 | 36 | 1016.9 |
| 20260831193016 | 78 | 180 | 1.0 | 6.0 | 0.00 | 0.00 | 0.00 | 47 | 1017.4 |
| 20260831190016 | 76 | 0.0 | 1.0 | 0.00 | 0.01 | 0.00 | 60 | 1017.5 | |
| 20260831183017 | 74 | 0.0 | 1.0 | 0.00 | 0.01 | 0.00 | 61 | 1018.0 | |
| 20260831180016 | 73 | 0.0 | 5.0 | 0.00 | 0.01 | 0.00 | 59 | 1018.4 | |
| 20260831173016 | 72 | 0.0 | 1.0 | 0.00 | 0.01 | 0.00 | 60 | 1018.5 | |
| 20260831170016 | 71 | 0.0 | 0.0 | 0.00 | 0.01 | 0.00 | 63 | 1018.4 | |
| 20260831163016 | 69 | 0.0 | 0.0 | 0.00 | 0.01 | 0.00 | 64 | 1018.5 | |
| 20260831160016 | 67 | 0.0 | 0.0 | 0.00 | 0.01 | 0.00 | 66 | 1017.8 | |
| 20260831153016 | 65 | 0.0 | 0.0 | 0.00 | 0.01 | 0.00 | 70 | 1017.2 | |
| 20260831150016 | 62 | 0.0 | 0.0 | 0.00 | 0.01 | 0.00 | 75 | 1017.3 | |
| 20260831143016 | 60 | 0.0 | 0.0 | 0.00 | 0.01 | 0.00 | 76 | 1017.3 | |
| 20260831140016 | 60 | 0.0 | 1.0 | 0.00 | 0.01 | 0.00 | 76 | 1017.6 | |
| 20260831133016 | 59 | 0.0 | 0.0 | 0.00 | 0.10 | 0.00 | 74 | 1017.3 | |
| 20260831130016 | 60 | 0.0 | 0.0 | 0.00 | 0.11 | 0.00 | 73 | 1017.6 | |
| 20260831123056 | 60 | 0.0 | 0.0 | 0.00 | 0.11 | 0.00 | 74 | 1017.5 | |
| 20260831120015 | 61 | 0.0 | 0.0 | 0.00 | 0.11 | 0.00 | 76 | 1017.6 | |
| 20260831113016 | 61 | 0.0 | 5.0 | 0.00 | 0.11 | 0.00 | 71 | 1018.1 | |
| 20260831110018 | 60 | 0.0 | 0.0 | 0.00 | 0.11 | 0.00 | 77 | 1018.1 | |
| 20260831103057 | 60 | 0.0 | 4.0 | 0.00 | 0.11 | 0.00 | 76 | 1017.7 | |
| 20260831100017 | 61 | 0.0 | 0.0 | 0.00 | 0.11 | 0.00 | 75 | 1017.5 | |
| 20260831093057 | 61 | 0.0 | 1.0 | 0.00 | 0.11 | 0.00 | 78 | 1017.6 | |
| 20260831090017 | 61 | 0.0 | 0.0 | 0.00 | 0.12 | 0.00 | 75 | 1017.5 | |
| 20260831083020 | 61 | 0.0 | 0.0 | 0.00 | 0.12 | 0.00 | 74 | 1017.4 | |
| 20260831080017 | 61 | 0.0 | 0.0 | 0.00 | 0.14 | 0.00 | 74 | 1017.4 | |
| 20260831073017 | 62 | 0.0 | 0.0 | 0.00 | 0.14 | 0.00 | 74 | 1018.0 | |
| 20260831070057 | 62 | 0.0 | 0.0 | 0.00 | 0.14 | 0.00 | 75 | 1018.1 | |
| 20260831063017 | 63 | 0.0 | 0.0 | 0.00 | 0.15 | 0.00 | 72 | 1017.7 | |
| 20260831060017 | 63 | 0.0 | 0.0 | 0.00 | 0.15 | 0.15 | 69 | 1017.7 | |
| 20260831053016 | 64 | 0.0 | 2.0 | 0.00 | 0.15 | 0.15 | 67 | 1017.0 | |
| 20260831050016 | 64 | 0.0 | 0.0 | 0.00 | 0.20 | 0.15 | 66 | 1016.8 | |
| 20260831043056 | 65 | 0.0 | 1.0 | 0.00 | 0.24 | 0.15 | 63 | 1016.5 | |
| 20260831040016 | 66 | 0.0 | 0.0 | 0.00 | 0.24 | 0.15 | 61 | 1016.2 | |
| 20260831033016 | 67 | 0.0 | 1.0 | 0.00 | 0.28 | 0.15 | 61 | 1015.5 | |
| 20260831030016 | 67 | 0.0 | 0.0 | 0.00 | 0.28 | 0.15 | 61 | 1015.5 | |
| 20260831023017 | 69 | 0.0 | 0.0 | 0.00 | 0.28 | 0.15 | 59 | 1015.6 | |
| 20260831020017 | 71 | 0.0 | 1.0 | 0.00 | 0.28 | 0.15 | 54 | 1015.8 | |
| 20260831013017 | 72 | 180 | 1.0 | 8.0 | 0.00 | 0.30 | 0.15 | 50 | 1015.8 |
| 20260831010017 | 74 | 158 | 1.0 | 9.0 | 0.00 | 0.37 | 0.15 | 46 | 1016.0 |
| 20260831003057 | 75 | 180 | 1.0 | 7.0 | 0.00 | 0.37 | 0.15 | 48 | 1016.5 |
| 20260831000017 | 74 | 0.0 | 3.0 | 0.00 | 0.37 | 0.15 | 48 | 1015.8 | |
| 20260830233017 | 75 | 0.0 | 5.0 | 0.00 | 0.37 | 0.15 | 48 | 1016.2 | |
| 20260830230017 | 77 | 315 | 1.0 | 9.0 | 0.00 | 0.37 | 0.15 | 48 | 1016.4 |